| time (UTC) | temp C | wind direction | speed KPH | gust KPH | rain 1hr cm | rain 24hr cm | rain mn cm | humidity % | barometer mb |
| 20260502130502 | 6 | 355 | 0.0 | 0.0 | 0.00 | 0.00 | 0.00 | 64 | 1018.8 |
| 20260502123559 | 5 | 349 | 0.0 | 0.0 | 0.00 | 0.00 | 0.00 | 66 | 1018.4 |
| 20260502123059 | 5 | 325 | 0.0 | 0.0 | 0.00 | 0.00 | 0.00 | 66 | 1018.4 |
| 20260502122602 | 5 | 302 | 0.0 | 0.0 | 0.00 | 0.00 | 0.00 | 66 | 1018.4 |
| 20260502122058 | 5 | 302 | 0.0 | 0.0 | 0.00 | 0.00 | 0.00 | 67 | 1018.4 |
| 20260502121557 | 5 | 299 | 0.0 | 0.0 | 0.00 | 0.00 | 0.00 | 67 | 1018.1 |
| 20260502121057 | 5 | 299 | 0.0 | 0.0 | 0.00 | 0.00 | 0.00 | 67 | 1018.1 |
| 20260502120556 | 5 | 299 | 0.0 | 0.0 | 0.00 | 0.00 | 0.00 | 67 | 1018.1 |
| 20260502115555 | 5 | 298 | 0.0 | 0.0 | 0.00 | 0.00 | 0.00 | 67 | 1017.9 |
| 20260502115055 | 5 | 299 | 0.0 | 0.0 | 0.00 | 0.00 | 0.00 | 67 | 1017.8 |
| 20260502114555 | 4 | 299 | 0.0 | 0.0 | 0.00 | 0.00 | 0.00 | 67 | 1017.8 |
| 20260502114055 | 4 | 298 | 0.0 | 0.0 | 0.00 | 0.00 | 0.00 | 68 | 1017.8 |
| 20260502113555 | 4 | 297 | 0.0 | 0.0 | 0.00 | 0.00 | 0.00 | 68 | 1017.7 |
| 20260502113056 | 4 | 297 | 0.0 | 0.0 | 0.00 | 0.00 | 0.00 | 67 | 1017.8 |
| 20260502112554 | 3 | 282 | 0.0 | 0.0 | 0.00 | 0.00 | 0.00 | 67 | 1017.8 |
| 20260502112054 | 3 | 282 | 0.0 | 0.0 | 0.00 | 0.00 | 0.00 | 67 | 1017.7 |
| 20260502111555 | 3 | 281 | 0.0 | 0.0 | 0.00 | 0.00 | 0.00 | 67 | 1017.5 |
| 20260502111053 | 3 | 281 | 0.0 | 0.0 | 0.00 | 0.00 | 0.00 | 67 | 1017.4 |
| 20260502110553 | 3 | 281 | 0.0 | 0.0 | 0.00 | 0.00 | 0.00 | 67 | 1017.4 |
| 20260502110100 | 3 | 281 | 0.0 | 0.0 | 0.00 | 0.00 | 0.00 | 67 | 1017.3 |
| 20260502105553 | 3 | 281 | 0.0 | 0.0 | 0.00 | 0.00 | 0.00 | 67 | 1017.3 |
| 20260502105052 | 3 | 305 | 0.0 | 0.0 | 0.00 | 0.00 | 0.00 | 67 | 1017.3 |
| 20260502104552 | 2 | 302 | 0.0 | 0.0 | 0.00 | 0.00 | 0.00 | 67 | 1017.3 |
| 20260502104052 | 2 | 299 | 0.0 | 0.0 | 0.00 | 0.00 | 0.00 | 66 | 1017.3 |
| 20260502103552 | 2 | 299 | 0.0 | 0.0 | 0.00 | 0.00 | 0.00 | 66 | 1017.3 |
| 20260502103101 | 2 | 299 | 0.0 | 0.0 | 0.00 | 0.00 | 0.00 | 66 | 1017.3 |
| 20260502102552 | 2 | 299 | 0.0 | 0.0 | 0.00 | 0.00 | 0.00 | 66 | 1017.1 |
| 20260502102051 | 2 | 299 | 0.0 | 0.0 | 0.00 | 0.00 | 0.00 | 66 | 1017.2 |
| 20260502101558 | 2 | 299 | 0.0 | 0.0 | 0.00 | 0.00 | 0.00 | 66 | 1017.3 |
| 20260502101050 | 2 | 299 | 0.0 | 0.0 | 0.00 | 0.00 | 0.00 | 65 | 1017.4 |
| 20260502100551 | 2 | 299 | 0.0 | 0.0 | 0.00 | 0.00 | 0.00 | 65 | 1017.4 |
| 20260502091045 | 3 | 299 | 0.0 | 0.0 | 0.00 | 0.00 | 0.00 | 64 | 1017.3 |
| 20260502090544 | 3 | 299 | 0.0 | 0.0 | 0.00 | 0.00 | 0.00 | 64 | 1017.3 |
| 20260502090110 | 3 | 299 | 0.0 | 0.0 | 0.00 | 0.00 | 0.00 | 64 | 1017.2 |
| 20260502071040 | 3 | 299 | 0.0 | 0.0 | 0.00 | 0.00 | 0.00 | 63 | 1017.5 |
| 20260502070536 | 3 | 299 | 0.0 | 0.0 | 0.00 | 0.00 | 0.00 | 63 | 1017.4 |
| 20260502070048 | 3 | 299 | 0.0 | 0.0 | 0.00 | 0.00 | 0.00 | 63 | 1017.3 |
| 20260502065535 | 3 | 299 | 0.0 | 0.0 | 0.00 | 0.00 | 0.00 | 63 | 1017.4 |
| 20260502065034 | 4 | 299 | 0.0 | 0.0 | 0.00 | 0.00 | 0.00 | 63 | 1017.3 |
| 20260502064538 | 4 | 299 | 0.0 | 0.0 | 0.00 | 0.00 | 0.00 | 63 | 1017.2 |
| 20260502064033 | 4 | 299 | 0.0 | 0.0 | 0.00 | 0.00 | 0.00 | 63 | 1017.3 |
| 20260502063532 | 4 | 299 | 0.0 | 0.0 | 0.00 | 0.00 | 0.00 | 62 | 1017.4 |
| 20260502063040 | 4 | 299 | 0.0 | 0.0 | 0.00 | 0.00 | 0.00 | 62 | 1017.3 |
| 20260502062531 | 5 | 299 | 0.0 | 0.0 | 0.00 | 0.00 | 0.00 | 62 | 1017.4 |
| 20260502062031 | 5 | 299 | 0.0 | 0.0 | 0.00 | 0.00 | 0.00 | 62 | 1017.5 |
| 20260502061530 | 5 | 299 | 0.0 | 0.0 | 0.00 | 0.00 | 0.00 | 62 | 1017.5 |
| 20260502061029 | 5 | 299 | 0.0 | 0.0 | 0.00 | 0.00 | 0.00 | 62 | 1017.5 |
| 20260502060529 | 5 | 299 | 0.0 | 0.0 | 0.00 | 0.00 | 0.00 | 62 | 1017.5 |
| 20260502060029 | 5 | 299 | 0.0 | 0.0 | 0.00 | 0.00 | 0.00 | 62 | 1017.4 |
| 20260502055529 | 5 | 299 | 0.0 | 0.0 | 0.00 | 0.00 | 0.00 | 62 | 1017.5 |
| 20260502055028 | 5 | 299 | 0.0 | 0.0 | 0.00 | 0.00 | 0.00 | 63 | 1017.5 |
| 20260502054534 | 4 | 299 | 0.0 | 0.0 | 0.00 | 0.00 | 0.00 | 63 | 1017.6 |
| 20260502054027 | 4 | 299 | 0.0 | 0.0 | 0.00 | 0.00 | 0.00 | 63 | 1017.6 |
| 20260502053527 | 5 | 299 | 0.0 | 0.0 | 0.00 | 0.00 | 0.00 | 63 | 1017.5 |
| 20260502053029 | 5 | 299 | 0.0 | 0.0 | 0.00 | 0.00 | 0.00 | 63 | 1017.6 |
| 20260502052526 | 5 | 299 | 0.0 | 0.0 | 0.00 | 0.00 | 0.00 | 63 | 1017.7 |
| 20260502052025 | 5 | 299 | 0.0 | 0.0 | 0.00 | 0.00 | 0.00 | 62 | 1017.8 |
| 20260502051524 | 5 | 299 | 0.0 | 0.0 | 0.00 | 0.00 | 0.00 | 62 | 1018.0 |
| 20260502051025 | 5 | 299 | 0.0 | 0.0 | 0.00 | 0.00 | 0.00 | 62 | 1018.1 |
| 20260502050526 | 5 | 299 | 0.0 | 0.0 | 0.00 | 0.00 | 0.00 | 61 | 1018.1 |
| 20260502050033 | 5 | 299 | 0.0 | 0.0 | 0.00 | 0.00 | 0.00 | 60 | 1018.1 |
| 20260502045520 | 5 | 299 | 0.0 | 0.0 | 0.00 | 0.00 | 0.00 | 60 | 1018.1 |
| 20260502045020 | 5 | 299 | 0.0 | 0.0 | 0.00 | 0.00 | 0.00 | 59 | 1017.9 |
| 20260502044518 | 5 | 299 | 0.0 | 0.0 | 0.00 | 0.00 | 0.00 | 59 | 1017.9 |
| 20260502044019 | 6 | 299 | 0.0 | 0.0 | 0.00 | 0.00 | 0.00 | 59 | 1018.0 |
| 20260502043517 | 6 | 299 | 0.0 | 0.0 | 0.00 | 0.00 | 0.00 | 59 | 1018.0 |
| 20260502043020 | 6 | 299 | 0.0 | 0.0 | 0.00 | 0.00 | 0.00 | 59 | 1018.0 |
| 20260502042517 | 6 | 299 | 0.0 | 0.0 | 0.00 | 0.00 | 0.00 | 58 | 1018.0 |
| 20260502042015 | 6 | 299 | 0.0 | 0.0 | 0.00 | 0.00 | 0.00 | 58 | 1018.0 |
| 20260502041514 | 6 | 299 | 0.0 | 0.0 | 0.00 | 0.00 | 0.00 | 58 | 1018.0 |
| 20260502041013 | 6 | 299 | 0.0 | 0.0 | 0.00 | 0.00 | 0.00 | 57 | 1018.1 |
| 20260502040512 | 6 | 299 | 0.0 | 0.0 | 0.00 | 0.00 | 0.00 | 56 | 1018.1 |
| 20260502040011 | 6 | 299 | 0.0 | 0.0 | 0.00 | 0.00 | 0.00 | 56 | 1018.0 |
| 20260502035511 | 6 | 299 | 0.0 | 0.0 | 0.00 | 0.00 | 0.00 | 55 | 1018.0 |
| 20260502035011 | 7 | 299 | 0.0 | 0.0 | 0.00 | 0.00 | 0.00 | 55 | 1017.9 |
| 20260502034514 | 7 | 299 | 0.0 | 0.0 | 0.00 | 0.00 | 0.00 | 55 | 1018.1 |
| 20260502034013 | 7 | 299 | 0.0 | 0.0 | 0.00 | 0.00 | 0.00 | 55 | 1018.1 |
| 20260502033512 | 7 | 299 | 0.0 | 0.0 | 0.00 | 0.00 | 0.00 | 54 | 1018.1 |
| 20260502033010 | 7 | 299 | 0.0 | 0.0 | 0.00 | 0.00 | 0.00 | 53 | 1018.1 |
| 20260502032510 | 7 | 299 | 0.0 | 0.0 | 0.00 | 0.00 | 0.00 | 52 | 1018.1 |
| 20260502032010 | 7 | 299 | 0.0 | 0.0 | 0.00 | 0.00 | 0.00 | 52 | 1018.0 |
| 20260502031510 | 7 | 299 | 0.0 | 0.0 | 0.00 | 0.00 | 0.00 | 52 | 1018.0 |
| 20260502031010 | 7 | 299 | 0.0 | 0.0 | 0.00 | 0.00 | 0.00 | 52 | 1018.1 |
| 20260502030512 | 7 | 299 | 0.0 | 0.0 | 0.00 | 0.00 | 0.00 | 54 | 1018.2 |
| 20260502030008 | 7 | 299 | 0.0 | 0.0 | 0.00 | 0.00 | 0.00 | 55 | 1018.1 |
| 20260502025508 | 7 | 299 | 0.0 | 0.0 | 0.00 | 0.00 | 0.00 | 55 | 1018.1 |
| 20260502025009 | 7 | 299 | 0.0 | 0.0 | 0.00 | 0.00 | 0.00 | 55 | 1018.1 |
| 20260502024507 | 7 | 299 | 0.0 | 0.0 | 0.00 | 0.00 | 0.00 | 54 | 1017.9 |
| 20260502024007 | 8 | 299 | 0.0 | 0.0 | 0.00 | 0.00 | 0.00 | 51 | 1017.9 |
| 20260502023507 | 8 | 299 | 0.0 | 0.0 | 0.00 | 0.00 | 0.00 | 51 | 1017.8 |
| 20260502023007 | 8 | 299 | 0.0 | 0.0 | 0.00 | 0.00 | 0.00 | 50 | 1017.7 |
| 20260502022507 | 8 | 299 | 0.0 | 0.0 | 0.00 | 0.00 | 0.00 | 48 | 1017.7 |
| 20260502022011 | 8 | 299 | 0.0 | 0.0 | 0.00 | 0.00 | 0.00 | 47 | 1017.8 |
| 20260502021507 | 8 | 299 | 0.0 | 0.0 | 0.00 | 0.00 | 0.00 | 47 | 1017.8 |
| 20260502021007 | 9 | 299 | 0.0 | 0.0 | 0.00 | 0.00 | 0.00 | 48 | 1017.7 |
| 20260502020505 | 10 | 299 | 0.0 | 0.0 | 0.00 | 0.00 | 0.00 | 44 | 1017.7 |
| 20260502020005 | 10 | 299 | 0.0 | 0.0 | 0.00 | 0.00 | 0.00 | 42 | 1017.7 |
| 20260502015504 | 10 | 299 | 0.0 | 0.0 | 0.00 | 0.00 | 0.00 | 42 | 1017.6 |
| 20260502015005 | 10 | 299 | 0.0 | 0.0 | 0.00 | 0.00 | 0.00 | 43 | 1017.6 |
| 20260502014502 | 10 | 299 | 0.0 | 0.0 | 0.00 | 0.00 | 0.00 | 42 | 1017.5 |
| 20260502014002 | 10 | 299 | 0.0 | 0.0 | 0.00 | 0.00 | 0.00 | 42 | 1017.3 |
| 20260502013501 | 10 | 299 | 0.0 | 0.0 | 0.00 | 0.00 | 0.00 | 41 | 1017.2 |
| 20260502013108 | 10 | 300 | 0.0 | 0.0 | 0.00 | 0.00 | 0.00 | 41 | 1017.2 |
| 20260502012600 | 10 | 305 | 0.0 | 0.0 | 0.00 | 0.00 | 0.00 | 42 | 1017.0 |
| 20260502012059 | 10 | 305 | 0.0 | 0.0 | 0.00 | 0.00 | 0.00 | 39 | 1016.9 |
| 20260502011559 | 10 | 305 | 0.0 | 0.0 | 0.00 | 0.00 | 0.00 | 39 | 1016.8 |
| 20260502011056 | 10 | 305 | 0.0 | 0.0 | 0.00 | 0.00 | 0.00 | 39 | 1016.6 |
| 20260502010556 | 10 | 305 | 0.0 | 0.0 | 0.00 | 0.00 | 0.00 | 40 | 1016.5 |
| 20260502010054 | 11 | 305 | 0.0 | 0.0 | 0.00 | 0.00 | 0.00 | 37 | 1016.4 |
| 20260502005554 | 11 | 305 | 0.0 | 0.0 | 0.00 | 0.00 | 0.00 | 34 | 1016.4 |
| 20260502005054 | 11 | 305 | 0.0 | 0.0 | 0.00 | 0.00 | 0.00 | 34 | 1016.4 |
| 20260502004556 | 11 | 305 | 0.0 | 0.0 | 0.00 | 0.00 | 0.00 | 33 | 1016.2 |
| 20260502004054 | 12 | 346 | 0.0 | 0.0 | 0.00 | 0.00 | 0.00 | 33 | 1016.1 |
| 20260502003552 | 12 | 346 | 0.0 | 0.0 | 0.00 | 0.00 | 0.00 | 33 | 1016.0 |
| 20260502003054 | 12 | 346 | 0.0 | 0.0 | 0.00 | 0.00 | 0.00 | 33 | 1015.9 |
| 20260502002555 | 12 | 346 | 0.0 | 0.0 | 0.00 | 0.00 | 0.00 | 33 | 1016.0 |
| 20260502002051 | 12 | 302 | 0.0 | 0.0 | 0.00 | 0.00 | 0.00 | 32 | 1015.9 |
| 20260502001613 | 13 | 336 | 0.0 | 0.0 | 0.00 | 0.00 | 0.00 | 32 | 1015.9 |
| 20260502001052 | 13 | 340 | 0.0 | 0.0 | 0.00 | 0.00 | 0.00 | 31 | 1015.9 |
| 20260502000551 | 13 | 331 | 0.0 | 0.0 | 0.00 | 0.00 | 0.00 | 31 | 1015.8 |
| 20260502000105 | 13 | 342 | 0.0 | 0.0 | 0.00 | 0.00 | 0.00 | 31 | 1015.7 |
| 20260501235553 | 13 | 334 | 0.0 | 0.0 | 0.00 | 0.00 | 0.00 | 34 | 1015.6 |
| 20260501235050 | 13 | 351 | 0.0 | 0.0 | 0.00 | 0.00 | 0.00 | 33 | 1015.5 |
| 20260501234550 | 13 | 343 | 0.0 | 0.0 | 0.00 | 0.00 | 0.00 | 34 | 1015.3 |
| 20260501234050 | 13 | 11 | 0.0 | 0.0 | 0.00 | 0.00 | 0.00 | 31 | 1015.1 |
| 20260501233550 | 14 | 347 | 0.0 | 0.0 | 0.00 | 0.00 | 0.00 | 33 | 1015.0 |
| 20260501233051 | 14 | 346 | 0.0 | 0.0 | 0.00 | 0.00 | 0.00 | 33 | 1014.9 |
| 20260501232550 | 14 | 331 | 0.0 | 0.0 | 0.00 | 0.00 | 0.00 | 34 | 1014.9 |
| 20260501232051 | 14 | 331 | 0.0 | 0.0 | 0.00 | 0.00 | 0.00 | 32 | 1014.8 |
| 20260501231549 | 14 | 321 | 0.0 | 0.0 | 0.00 | 0.00 | 0.00 | 32 | 1014.9 |
| 20260501231050 | 14 | 309 | 0.0 | 0.0 | 0.00 | 0.00 | 0.00 | 33 | 1014.9 |
| 20260501230549 | 14 | 302 | 0.0 | 0.0 | 0.00 | 0.00 | 0.00 | 32 | 1015.0 |
| 20260501230048 | 14 | 313 | 0.0 | 0.0 | 0.00 | 0.00 | 0.00 | 31 | 1015.1 |
| 20260501225549 | 14 | 349 | 0.0 | 0.0 | 0.00 | 0.00 | 0.00 | 29 | 1015.1 |
| 20260501225047 | 14 | 323 | 0.0 | 0.0 | 0.00 | 0.00 | 0.00 | 29 | 1015.0 |
| 20260501224605 | 13 | 347 | 0.0 | 0.0 | 0.00 | 0.00 | 0.00 | 29 | 1015.1 |
| 20260501224047 | 14 | 355 | 0.0 | 0.0 | 0.00 | 0.00 | 0.00 | 28 | 1015.1 |
| 20260501223547 | 14 | 5 | 0.0 | 0.0 | 0.00 | 0.00 | 0.00 | 28 | 1015.0 |
| 20260501223047 | 14 | 351 | 0.0 | 0.0 | 0.00 | 0.00 | 0.00 | 28 | 1015.0 |
| 20260501222550 | 13 | 344 | 0.0 | 0.0 | 0.00 | 0.00 | 0.00 | 30 | 1015.0 |
| 20260501222047 | 13 | 346 | 0.0 | 0.0 | 0.00 | 0.00 | 0.00 | 30 | 1015.0 |
| 20260501221547 | 14 | 348 | 0.0 | 0.0 | 0.00 | 0.00 | 0.00 | 29 | 1014.9 |
| 20260501221046 | 14 | 344 | 0.0 | 0.0 | 0.00 | 0.00 | 0.00 | 29 | 1015.0 |
| 20260501220546 | 15 | 344 | 0.0 | 0.0 | 0.00 | 0.00 | 0.00 | 29 | 1015.0 |
| 20260501220048 | 15 | 344 | 0.0 | 0.0 | 0.00 | 0.00 | 0.00 | 30 | 1015.0 |
| 20260501215547 | 15 | 350 | 0.0 | 0.0 | 0.00 | 0.00 | 0.00 | 29 | 1015.2 |
| 20260501215046 | 15 | 12 | 0.0 | 0.0 | 0.00 | 0.00 | 0.00 | 31 | 1015.1 |
| 20260501214546 | 15 | 345 | 0.0 | 0.0 | 0.00 | 0.00 | 0.00 | 31 | 1015.1 |
| 20260501214046 | 15 | 329 | 0.0 | 0.0 | 0.00 | 0.00 | 0.00 | 29 | 1015.0 |
| 20260501213545 | 15 | 304 | 0.0 | 0.0 | 0.00 | 0.00 | 0.00 | 27 | 1015.0 |
| 20260501213047 | 15 | 306 | 0.0 | 0.0 | 0.00 | 0.00 | 0.00 | 30 | 1015.0 |
| 20260501212545 | 14 | 309 | 0.0 | 0.0 | 0.00 | 0.00 | 0.00 | 31 | 1015.1 |
| 20260501212045 | 14 | 327 | 0.0 | 0.0 | 0.00 | 0.00 | 0.00 | 32 | 1015.1 |
| 20260501211545 | 14 | 299 | 0.0 | 0.0 | 0.00 | 0.00 | 0.00 | 31 | 1015.1 |
| 20260501211045 | 15 | 336 | 0.0 | 0.0 | 0.00 | 0.00 | 0.00 | 34 | 1015.1 |
| 20260501210544 | 15 | 343 | 0.0 | 0.0 | 0.00 | 0.00 | 0.00 | 32 | 1015.1 |
| 20260501210043 | 15 | 338 | 0.0 | 0.0 | 0.00 | 0.00 | 0.00 | 32 | 1015.2 |
| 20260501205543 | 15 | 335 | 0.0 | 0.0 | 0.00 | 0.00 | 0.00 | 33 | 1015.1 |
| 20260501205044 | 14 | 347 | 0.0 | 0.0 | 0.00 | 0.00 | 0.00 | 32 | 1015.1 |
| 20260501204544 | 15 | 5 | 0.0 | 0.0 | 0.00 | 0.00 | 0.00 | 33 | 1015.1 |
| 20260501204043 | 15 | 330 | 0.0 | 0.0 | 0.00 | 0.00 | 0.00 | 32 | 1015.2 |
| 20260501203543 | 15 | 355 | 0.0 | 0.0 | 0.00 | 0.00 | 0.00 | 33 | 1015.3 |
| 20260501203043 | 15 | 300 | 0.0 | 0.0 | 0.00 | 0.00 | 0.00 | 31 | 1015.3 |
| 20260501202543 | 15 | 19 | 0.0 | 0.0 | 0.00 | 0.00 | 0.00 | 34 | 1015.4 |
| 20260501202043 | 15 | 23 | 0.0 | 0.0 | 0.00 | 0.00 | 0.00 | 33 | 1015.3 |
| 20260501201543 | 15 | 308 | 0.0 | 0.0 | 0.00 | 0.00 | 0.00 | 28 | 1015.3 |
| 20260501201042 | 16 | 335 | 0.0 | 0.0 | 0.00 | 0.00 | 0.00 | 29 | 1015.4 |
| 20260501200542 | 16 | 320 | 0.0 | 0.0 | 0.00 | 0.00 | 0.00 | 29 | 1015.4 |
| 20260501200047 | 15 | 288 | 0.0 | 0.0 | 0.00 | 0.00 | 0.00 | 27 | 1015.5 |
| 20260501195541 | 15 | 315 | 0.0 | 0.0 | 0.00 | 0.00 | 0.00 | 27 | 1015.6 |
| 20260501195041 | 15 | 333 | 0.0 | 0.0 | 0.00 | 0.00 | 0.00 | 30 | 1015.5 |
| 20260501194553 | 15 | 355 | 0.0 | 0.0 | 0.00 | 0.00 | 0.00 | 26 | 1015.5 |
| 20260501194039 | 16 | 343 | 0.0 | 0.0 | 0.00 | 0.00 | 0.00 | 30 | 1015.8 |
| 20260501193544 | 15 | 286 | 0.0 | 0.0 | 0.00 | 0.00 | 0.00 | 27 | 1015.7 |
| 20260501193042 | 14 | 308 | 0.0 | 0.0 | 0.00 | 0.00 | 0.00 | 29 | 1015.8 |
| 20260501192542 | 14 | 5 | 0.0 | 0.0 | 0.00 | 0.00 | 0.00 | 28 | 1015.8 |
| 20260501192042 | 14 | 349 | 0.0 | 0.0 | 0.00 | 0.00 | 0.00 | 32 | 1016.0 |
| 20260501191546 | 14 | 349 | 0.0 | 0.0 | 0.00 | 0.00 | 0.00 | 30 | 1015.8 |
| 20260501191040 | 14 | 340 | 0.0 | 0.0 | 0.00 | 0.00 | 0.00 | 30 | 1015.9 |
| 20260501190539 | 14 | 345 | 0.0 | 1.6 | 0.00 | 0.00 | 0.00 | 27 | 1015.7 |
| 20260501190039 | 15 | 344 | 0.0 | 1.6 | 0.00 | 0.00 | 0.00 | 27 | 1015.5 |
| 20260501185537 | 15 | 343 | 0.0 | 0.0 | 0.00 | 0.00 | 0.00 | 28 | 1015.5 |
| 20260501185037 | 15 | 318 | 0.0 | 1.6 | 0.00 | 0.00 | 0.00 | 32 | 1015.5 |
| 20260501184536 | 15 | 261 | 0.0 | 1.6 | 0.00 | 0.00 | 0.00 | 31 | 1015.5 |
| 20260501184036 | 15 | 288 | 0.0 | 0.0 | 0.00 | 0.00 | 0.00 | 30 | 1015.5 |
| 20260501183536 | 15 | 310 | 0.0 | 0.0 | 0.00 | 0.00 | 0.00 | 28 | 1015.5 |
| 20260501183038 | 15 | 315 | 0.0 | 0.0 | 0.00 | 0.00 | 0.00 | 28 | 1015.5 |
| 20260501182535 | 14 | 350 | 0.0 | 0.0 | 0.00 | 0.00 | 0.00 | 28 | 1015.3 |
| 20260501182036 | 14 | 342 | 0.0 | 0.0 | 0.00 | 0.00 | 0.00 | 27 | 1015.3 |
| 20260501181535 | 14 | 331 | 0.0 | 0.0 | 0.00 | 0.00 | 0.00 | 30 | 1015.5 |
| 20260501181038 | 15 | 293 | 0.0 | 0.0 | 0.00 | 0.00 | 0.00 | 26 | 1015.5 |
| 20260501180536 | 14 | 302 | 0.0 | 0.0 | 0.00 | 0.00 | 0.00 | 30 | 1015.5 |
| 20260501180035 | 14 | 300 | 0.0 | 0.0 | 0.00 | 0.00 | 0.00 | 28 | 1015.7 |
| 20260501175534 | 14 | 337 | 0.0 | 0.0 | 0.00 | 0.00 | 0.00 | 31 | 1015.7 |
| 20260501175034 | 13 | 294 | 0.0 | 0.0 | 0.00 | 0.00 | 0.00 | 28 | 1015.8 |
| 20260501174534 | 15 | 277 | 0.0 | 0.0 | 0.00 | 0.00 | 0.00 | 28 | 1015.9 |
| 20260501174033 | 15 | 333 | 0.0 | 0.0 | 0.00 | 0.00 | 0.00 | 28 | 1015.8 |
| 20260501173533 | 15 | 325 | 0.0 | 1.6 | 0.00 | 0.00 | 0.00 | 30 | 1015.8 |
| 20260501173051 | 15 | 294 | 0.0 | 1.6 | 0.00 | 0.00 | 0.00 | 27 | 1015.8 |
| 20260501172532 | 15 | 309 | 0.0 | 0.0 | 0.00 | 0.00 | 0.00 | 33 | 1015.9 |
| 20260501172032 | 14 | 300 | 0.0 | 0.0 | 0.00 | 0.00 | 0.00 | 30 | 1015.8 |
| 20260501171533 | 15 | 355 | 0.0 | 0.0 | 0.00 | 0.00 | 0.00 | 33 | 1015.9 |
| 20260501171031 | 15 | 306 | 0.0 | 0.0 | 0.00 | 0.00 | 0.00 | 34 | 1015.8 |
| 20260501170531 | 15 | 328 | 0.0 | 0.0 | 0.00 | 0.00 | 0.00 | 34 | 1015.8 |
| 20260501170029 | 14 | 342 | 0.0 | 0.0 | 0.00 | 0.00 | 0.00 | 35 | 1015.7 |
| 20260501165529 | 13 | 294 | 0.0 | 0.0 | 0.00 | 0.00 | 0.00 | 34 | 1015.7 |
| 20260501165030 | 14 | 296 | 0.0 | 0.0 | 0.00 | 0.00 | 0.00 | 33 | 1015.8 |
| 20260501164527 | 14 | 281 | 0.0 | 0.0 | 0.00 | 0.00 | 0.00 | 32 | 1015.8 |
| 20260501164026 | 14 | 282 | 0.0 | 0.0 | 0.00 | 0.00 | 0.00 | 32 | 1015.8 |
| 20260501163530 | 14 | 355 | 0.0 | 0.0 | 0.00 | 0.00 | 0.00 | 38 | 1015.7 |
| 20260501163027 | 14 | 299 | 0.0 | 0.0 | 0.00 | 0.00 | 0.00 | 34 | 1015.7 |
| 20260501162525 | 13 | 292 | 0.0 | 0.0 | 0.00 | 0.00 | 0.00 | 36 | 1015.6 |
| 20260501162025 | 13 | 304 | 0.0 | 0.0 | 0.00 | 0.00 | 0.00 | 38 | 1015.8 |
| 20260501161524 | 13 | 294 | 0.0 | 0.0 | 0.00 | 0.00 | 0.00 | 43 | 1015.7 |
| 20260501161024 | 13 | 321 | 0.0 | 0.0 | 0.00 | 0.00 | 0.00 | 42 | 1015.8 |
| 20260501160523 | 13 | 299 | 0.0 | 0.0 | 0.00 | 0.00 | 0.00 | 42 | 1015.7 |
| 20260501160023 | 13 | 288 | 0.0 | 0.0 | 0.00 | 0.00 | 0.00 | 41 | 1015.6 |
| 20260501155525 | 13 | 313 | 0.0 | 0.0 | 0.00 | 0.00 | 0.00 | 43 | 1015.6 |
| 20260501155022 | 12 | 347 | 0.0 | 0.0 | 0.00 | 0.00 | 0.00 | 43 | 1015.6 |
| 20260501154522 | 13 | 317 | 0.0 | 0.0 | 0.00 | 0.00 | 0.00 | 43 | 1015.5 |
| 20260501154021 | 13 | 304 | 0.0 | 0.0 | 0.00 | 0.00 | 0.00 | 44 | 1015.5 |
| 20260501153523 | 13 | 293 | 0.0 | 0.0 | 0.00 | 0.00 | 0.00 | 43 | 1015.4 |
| 20260501153021 | 13 | 280 | 0.0 | 0.0 | 0.00 | 0.00 | 0.00 | 42 | 1015.3 |
| 20260501152520 | 13 | 342 | 0.0 | 0.0 | 0.00 | 0.00 | 0.00 | 49 | 1015.3 |
| 20260501152020 | 13 | 313 | 0.0 | 0.0 | 0.00 | 0.00 | 0.00 | 46 | 1015.2 |
| 20260501151520 | 13 | 9 | 0.0 | 0.0 | 0.00 | 0.00 | 0.00 | 46 | 1015.2 |
| 20260501151020 | 13 | 315 | 0.0 | 0.0 | 0.00 | 0.00 | 0.00 | 50 | 1015.2 |
| 20260501150518 | 12 | 333 | 0.0 | 0.0 | 0.00 | 0.00 | 0.00 | 50 | 1015.2 |
| 20260501150020 | 12 | 338 | 0.0 | 0.0 | 0.00 | 0.00 | 0.00 | 49 | 1015.1 |
| 20260501145517 | 12 | 308 | 0.0 | 0.0 | 0.00 | 0.00 | 0.00 | 49 | 1015.1 |
| 20260501145016 | 12 | 311 | 0.0 | 0.0 | 0.00 | 0.00 | 0.00 | 53 | 1015.1 |
| 20260501144515 | 12 | 355 | 0.0 | 0.0 | 0.00 | 0.00 | 0.00 | 52 | 1015.1 |
| 20260501144014 | 12 | 336 | 0.0 | 0.0 | 0.00 | 0.00 | 0.00 | 53 | 1015.1 |
| 20260501143518 | 12 | 339 | 0.0 | 0.0 | 0.00 | 0.00 | 0.00 | 53 | 1015.1 |
| 20260501143012 | 11 | 350 | 0.0 | 0.0 | 0.00 | 0.00 | 0.00 | 53 | 1015.1 |
| 20260501142512 | 11 | 326 | 0.0 | 0.0 | 0.00 | 0.00 | 0.00 | 52 | 1015.1 |
| 20260501142012 | 11 | 328 | 0.0 | 0.0 | 0.00 | 0.00 | 0.00 | 52 | 1015.0 |
| 20260501141512 | 11 | 302 | 0.0 | 0.0 | 0.00 | 0.00 | 0.00 | 52 | 1015.0 |
| 20260501141113 | 11 | 294 | 0.0 | 0.0 | 0.00 | 0.00 | 0.00 | 55 | 1014.9 |
| 20260501140511 | 11 | 344 | 0.0 | 0.0 | 0.00 | 0.00 | 0.00 | 56 | 1014.8 |
| 20260501140010 | 11 | 293 | 0.0 | 0.0 | 0.00 | 0.00 | 0.00 | 57 | 1014.7 |
| 20260501135509 | 11 | 297 | 0.0 | 0.0 | 0.00 | 0.00 | 0.00 | 57 | 1014.8 |
| 20260501135008 | 11 | 301 | 0.0 | 0.0 | 0.00 | 0.00 | 0.00 | 59 | 1014.8 |
| 20260501134508 | 11 | 288 | 0.0 | 6.4 | 0.00 | 0.00 | 0.00 | 57 | 1014.7 |
| 20260501134008 | 11 | 318 | 0.0 | 4.8 | 0.00 | 0.00 | 0.00 | 57 | 1014.6 |
| 20260501133508 | 11 | 281 | 0.0 | 0.0 | 0.00 | 0.00 | 0.00 | 56 | 1014.7 |